Miscellaneous Local Product
Issued by NWS North Platte, NE

Home | Current Version | Previous Version | Text Only | Print | Product List | Glossary On
Versions: 1 2 3 4 5 6 7 8 9 10 11 12 13 14 15 16 17 18 19 20 21 22 23 24 25 26 27 28 29 30 31 32 33 34 35 36 37 38 39 40 41 42 43 44 45 46 47 48 49 50
939
AXUS43 KLBF 231910
MISLBF


WESTERN AND NORTH CENTRAL NEBRASKA HOURLY WEATHER ROUNDUP
NATIONAL WEATHER SERVICE NORTH PLATTE NE
100 PM CST THU FEB 23 2017

NOTE: "FAIR" INDICATES FEW OR NO CLOUDS BELOW 12,000 FEET WITH NO
SIGNIFICANT WEATHER AND/OR OBSTRUCTIONS TO VISIBILITY.

NOTE: STATIONS NOT REPORTING VARIABLES SUCH AS SKY/WEATHER OR
PRESSURE ARE PROVIDED BY RAWS AND APRS NETWORKS AND ARE NOT UNDER
NATIONAL WEATHER SERVICE QUALITY CONTROL.

...OBSERVATIONS IN AND NEAR THE EASTERN PANHANDLE OF NEBRASKA...

CITY           SKY/WX    TMP DP  RH WIND       PRES   REMARKS
PINE RIDGE     SNOW      26  23  88 NE14G24   29.78F VSB 1/2 WCI  14
CHADRON        FOG       25  21  85 NE18      29.79F VSB 1/2 WCI  11
ALLIANCE       LGT SNOW  22  19  89 NE22G28   29.67F VSB 3/4 WCI   6
SIDNEY         LGT SNOW  25  22  88 NE16      29.60F FOG     WCI  12
CRESCENT LAKE    N/A     23  20  87 NE15G24     N/A  WCI  10
$$

...OBSERVATIONS IN NORTHERN NEBRASKA AND FAR SOUTHERN SOUTH DAKOTA...

CITY           SKY/WX    TMP DP  RH WIND       PRES   REMARKS
WINNER         LGT SNOW  30  26  85 NE16      29.85F VSB 1   WCI  19
VALENTINE      HVY SNOW  26  22  84 NE22G30   29.79F VSB 1/4 WCI  12
THEDFORD       LGT SNOW  27  25  89 NE16G31   29.69F VSB 1   WCI  15
AINSWORTH      SNOW      27  26  96 NE21G28   29.76F VSB 1/4 WCI  13
O`NEILL        LGT SNOW  30  29  94 NE22G28   29.76F VSB 3/4 WCI  17
ORD            CLOUDY    32  26  78 NE21G28   29.67F WCI  20
BROKEN BOW     CLOUDY    30  27  88 NE24G35   29.62F WCI  16
VALENTINE NWR    N/A     25  23  91 NE13G20     N/A  WCI  14
BUTTE            N/A     27  26  94 N20G26      N/A  WCI  14
HALSEY           N/A     26  24  91 NE9G20      N/A  WCI  17
CHAMBERS         N/A     32  28  83 N5G15       N/A  WCI  27
EWING            N/A     31  30  94 NE12G20     N/A  WCI  22
$$

...OBSERVATIONS IN SOUTHWEST NEBRASKA AND FAR NORTHEAST COLORADO...

CITY           SKY/WX    TMP DP  RH WIND       PRES   REMARKS
HOLYOKE        CLOUDY    32  30  93 NE14      29.60S FOG     WCI  22
IMPERIAL       FRZ RAIN  29  27  92 NE20      29.59F FOG     WCI  16
OGALLALA       CLOUDY    29  25  83 NE15      29.63F WCI  18
NORTH PLATTE   CLOUDY    31  24  75 NE20G29   29.61F WCI  19
MCCOOK         MIX PCPN  32  32 100 NE20      29.58F FOG     WCI  20
LEXINGTON      CLOUDY    32  31  94 NE20      29.61F WCI  20
STAPLETON        N/A     26  23  87 N7G21       N/A  WCI  18
GOTHENBURG       N/A     32  29  87 NE9         N/A  WCI  24
CALLAWAY         N/A     28  27  94 NE17        N/A  WCI  16
$$

...OBSERVATIONS IN CENTRAL LINCOLN COUNTY AREA...

CITY           SKY/WX    TMP DP  RH WIND       PRES   REMARKS
N.P. AIRPORT   CLOUDY    31  24  75 NE20G29   29.61F WCI  19
N.P. DOWNTOWN    N/A     29  25  85 NE13G23     N/A  WCI  19
N.P. SOUTHEAST   N/A     29  25  83 NE9G17      N/A  WCI  21
N.P. HILLCREST   N/A     28  25  87 NE20G33     N/A  WCI  15
$$

...SOME OBSERVATIONS FROM AROUND THE REGION...

CITY           SKY/WX    TMP DP  RH WIND       PRES   REMARKS
LARAMIE        CLOUDY    20  13  74 E17G28    29.49R WCI   5
CHEYENNE       LGT SNOW  21  17  84 NE20G26   29.57F VSB 3/4 WCI   6
DENVER         LGT SNOW  30  26  85 NE13      29.53S FOG     WCI  20
AKRON          CLOUDY    28  26  92 NE18G26   29.53S FOG     WCI  15
SCOTTSBLUFF    LGT SNOW  25  20  81 NE10      29.69S VSB 3/4 WCI  15
RAPID CITY     LGT SNOW  26  22  84 NE12      29.89S VSB 1   WCI  16
BISMARCK       CLOUDY    31  25  78 NE8       30.02S WCI  23
PIERRE         CLOUDY    32  23  69 NE16      29.92F WCI  21
SIOUX FALLS    FLURRIES  32  27  81 NE18G25   29.85F WCI  20
OMAHA          CLOUDY    42  34  73 NE20      29.65F
GRAND ISLAND   CLOUDY    34  33  96 NE21G28   29.64F WCI  22
KANSAS CITY    CLOUDY    51  42  71 E20G25    29.52F
WICHITA        PTSUNNY   66  50  56 SE9       29.43F
OKLAHOMA CITY  MOSUNNY   83  41  22 S17G26    29.44F
DALLAS         SUNNY     86  46  24 S16G29    29.54F
AMARILLO       SUNNY     75  24  15 SW31G44   29.51F
DODGE CITY     SUNNY     71  36  27 S15G23    29.38F
HAYS           MOSUNNY   56  38  50 E20       29.45F
GOODLAND       CLOUDY    32  32 100 NE17      29.51F WCI  21
$$




USA.gov is the U.S. government's official web portal to all federal, state and local government web resources and services.